1511636401.09,47115,7.0,72806.0,-3.43,-4.33,-4.25,0,*55
1511636402.32,47116,7.0,72804.0,-3.43,-4.33,-4.25,0,*56
1511636403.54,47117,7.0,72800.8,-3.43,-4.29,-4.29,0,*50
1511636404.77,47118,7.0,72802.5,-3.43,-4.33,-4.25,0,*58
1511636405.99,47119,7.0,72800.5,-3.43,-4.33,-4.25,0,*59
1511636407.22,47120,7.0,72800.3,-3.43,-4.25,-4.25,0,*54
1511636408.45,47121,7.0,72800.5,-3.43,-4.25,-4.25,0,*55
1511636409.67,47122,7.0,72806.3,-3.43,-4.33,-4.33,0,*56
1511636410.89,47123,7.0,72804.8,-3.43,-4.33,-4.25,0,*50
1511636412.12,47124,7.0,72808.5,-3.43,-4.25,-4.33,0,*57
1511636413.34,47125,7.0,72808.8,-3.43,-4.33,-4.25,0,*56
1511636414.56,47126,7.0,72808.3,-3.43,-4.37,-4.37,0,*52
1511636415.77,47127,7.0,72806.0,-3.43,-4.45,-4.37,0,*56
1511636416.98,47128,7.0,72810.0,-3.43,-4.45,-4.45,0,*5C
1511636418.2,47129,7.0,72810.0,-3.43,-4.57,-4.49,0,*52
1511636419.43,47130,7.0,72812.5,-3.43,-4.57,-4.49,0,*5A
1511636420.65,47131,7.0,72818.0,-3.43,-4.57,-4.57,0,*54
1511636421.85,47132,7.0,72818.0,-3.45,-4.65,-4.61,0,*55
1511636423.07,47133,7.0,72810.8,-3.43,-4.61,-4.57,0,*53
1511636424.29,47134,7.0,72816.5,-3.45,-4.73,-4.65,0,*50
1511636425.5,47135,7.0,72826.8,-3.45,-4.77,-4.65,0,*55
1511636426.74,47136,7.0,72832.3,-3.45,-4.85,-4.73,0,*5C
1511636428.0,47137,7.0,72834.0,-3.43,-4.73,-4.69,0,*59
1511636429.25,47138,7.0,72834.5,-3.45,-4.89,-4.85,0,*57
1511636430.51,47139,7.0,72830.8,-3.43,-4.85,-4.73,0,*55
1511636431.75,47140,7.0,72828.5,-3.45,-4.89,-4.77,0,*55
1511636432.99,47141,7.0,72826.0,-3.45,-4.89,-4.77,0,*54
1511636434.26,47142,7.0,72820.5,-3.43,-4.85,-4.81,0,*54
1511636435.5,47143,7.0,72820.8,-3.45,-4.89,-4.77,0,*56
1511636436.74,47144,7.0,72818.8,-3.45,-4.89,-4.77,0,*51
1511636438.0,47145,7.0,72804.3,-3.43,-4.85,-4.73,0,*5E
1511636439.27,47146,7.0,72810.3,-3.43,-4.85,-4.73,0,*5D
1511636440.53,47147,7.0,72814.3,-3.43,-4.85,-4.81,0,*51
1511636441.79,47148,7.0,72814.8,-3.43,-4.93,-4.81,0,*59
1511636443.06,47149,7.0,72820.0,-3.43,-4.85,-4.73,0,*52
1511636444.27,47150,7.0,72818.3,-3.45,-4.99,-4.77,0,*55
1511636445.53,47151,7.0,72822.3,-3.43,-4.85,-4.69,0,*50
1511636446.77,47152,7.0,72816.8,-3.45,-4.89,-4.73,0,*52
1511636448.02,47153,7.0,72814.3,-3.45,-4.89,-4.73,0,*53
1511636449.24,47154,7.0,72806.8,-3.45,-4.89,-4.65,0,*53
1511636450.5,47155,7.0,72804.3,-3.43,-4.81,-4.69,0,*50
1511636451.72,47156,7.0,72808.8,-3.45,-4.99,-4.73,0,*57
1511636452.93,47157,7.0,72812.8,-3.45,-4.99,-4.73,0,*56
1511636454.19,47158,7.0,72814.8,-3.43,-4.93,-4.73,0,*55
1511636455.41,47159,7.0,72820.3,-3.45,-4.99,-4.89,0,*5D
1511636456.66,47160,7.0,72812.0,-3.45,-5.03,-4.89,0,*55
1511636457.92,47161,7.0,72824.0,-3.43,-4.93,-4.85,0,*56
1511636459.14,47162,7.0,72826.5,-3.45,-4.99,-4.89,0,*55
1511636460.32,47163,7.0,72826.5,-3.45,-4.99,-4.99,0,*55
1511636461.59,47164,7.0,72820.8,-3.43,-4.85,-4.85,0,*54
1511636462.8,47165,7.0,72810.8,-3.45,-4.99,-4.89,0,*52
1511636463.99,47166,7.0,72796.0,-3.45,-4.99,-4.99,0,*50
1511636465.2,47167,7.0,72786.5,-3.47,-4.99,-4.99,0,*53
1511636466.41,47168,7.0,72780.0,-3.47,-4.99,-4.99,0,*5C
1511636467.62,47169,7.0,72776.8,-3.47,-4.99,-4.99,0,*5D
1511636468.83,47170,7.0,72766.5,-3.47,-4.99,-4.99,0,*55
1511636470.01,47171,7.0,72760.3,-3.45,-4.99,-4.99,0,*56
1511636471.2,47172,7.0,72760.0,-3.45,-4.99,-4.99,0,*55
1511636472.38,47173,7.0,72758.8,-3.45,-4.99,-4.99,0,*54
1511636473.57,47174,7.0,72764.0,-3.45,-4.99,-4.99,0,*53
1511636474.75,47175,7.0,72758.3,-3.45,-4.99,-4.99,0,*52
1511636475.94,47176,7.0,72754.0,-3.45,-4.99,-4.99,0,*51
1511636477.15,47177,7.0,72754.0,-3.47,-4.99,-4.99,0,*52
1511636478.4,47178,7.0,72754.5,-3.49,-5.03,-5.03,0,*53
1511636479.65,47179,7.0,72752.8,-3.47,-4.99,-5.03,0,*5E
1511636480.89,47180,7.0,72760.0,-3.47,-4.99,-5.03,0,*58
1511636482.1,47181,7.0,72756.0,-3.47,-4.99,-4.99,0,*5B
1511636483.37,47182,7.0,72762.0,-3.47,-4.89,-4.89,0,*58
1511636484.63,47183,7.0,72750.5,-3.47,-4.85,-4.89,0,*55
1511636485.9,47184,7.0,72768.3,-3.47,-4.89,-4.89,0,*5E
1511636487.16,47185,7.0,72764.8,-3.47,-4.77,-4.73,0,*5B
1511636488.35,47186,7.0,72764.5,-3.45,-4.65,-4.65,0,*5E
1511636489.55,47187,7.0,72768.5,-3.45,-4.65,-4.61,0,*5B
1511636490.77,47188,7.0,72770.3,-3.47,-4.61,-4.53,0,*53
1511636491.98,47189,7.0,72766.5,-3.47,-4.61,-4.49,0,*59
1511636493.2,47190,7.0,72768.5,-3.47,-4.53,-4.53,0,*5B
1511636494.4,47191,7.0,72772.5,-3.49,-4.57,-4.53,0,*50
1511636495.61,47192,7.0,72780.8,-3.47,-4.53,-4.41,0,*5A
1511636496.83,47193,7.0,72778.8,-3.47,-4.49,-4.41,0,*50
1511636498.04,47194,7.0,72786.8,-3.47,-4.41,-4.41,0,*5F
1511636499.26,47195,7.0,72778.0,-3.47,-4.37,-4.29,0,*51
1511636500.47,47196,7.0,72780.8,-3.47,-4.37,-4.37,0,*5D
1511636501.69,47197,7.0,72780.5,-3.47,-4.29,-4.37,0,*53
1511636502.91,47198,7.0,72784.3,-3.47,-4.37,-4.29,0,*5C
1511636504.13,47199,7.0,72798.0,-3.47,-4.29,-4.29,0,*52
1511636505.35,47200,7.0,72796.0,-3.47,-4.29,-4.25,0,*5D
1511636506.56,47201,7.0,72796.3,-3.47,-4.37,-4.25,0,*53
1511636507.78,47202,7.0,72812.5,-3.47,-4.29,-4.25,0,*5F
1511636508.98,47203,7.0,72812.0,-3.45,-4.29,-4.21,0,*58
1511636510.2,47204,7.0,72818.5,-3.47,-4.25,-4.25,0,*55
1511636511.41,47205,7.0,72812.8,-3.45,-4.25,-4.21,0,*52
1511636512.64,47206,7.0,72816.0,-3.43,-4.21,-4.21,0,*53
1511636513.85,47207,7.0,72822.3,-3.45,-4.21,-4.21,0,*54
1511636515.05,47208,7.0,72816.3,-3.45,-4.25,-4.21,0,*5F
1511636516.24,47209,7.0,72816.8,-3.45,-4.13,-4.13,0,*5A
1511636517.46,47210,7.0,72816.3,-3.43,-4.17,-4.05,0,*57
1511636518.66,47211,7.0,72816.5,-3.45,-4.13,-4.13,0,*53
1511636519.86,47212,7.0,72820.8,-3.45,-4.21,-4.13,0,*51
1511636521.08,47213,7.0,72818.8,-3.43,-4.17,-4.05,0,*54
1511636522.3,47214,7.0,72818.8,-3.43,-4.17,-4.09,0,*5F
1511636523.5,47215,7.0,72818.8,-3.45,-4.21,-4.13,0,*56
1511636524.7,47216,7.0,72816.5,-3.45,-4.21,-4.13,0,*55
1511636525.9,47217,7.0,72818.3,-3.45,-4.13,-4.13,0,*55
1511636527.12,47218,7.0,72816.3,-3.43,-4.25,-4.13,0,*59
1511636528.34,47219,7.0,72806.5,-3.43,-4.17,-4.09,0,*52
1511636529.56,47220,7.0,72806.5,-3.43,-4.21,-4.17,0,*52
1511636530.78,47221,7.0,72804.3,-3.43,-4.09,-4.17,0,*59
1511636532.0,47222,7.0,72806.8,-3.43,-4.17,-4.09,0,*5A
1511636533.21,47223,7.0,72802.3,-3.43,-4.17,-4.09,0,*5B
1511636534.41,47224,7.0,72806.0,-3.45,-4.25,-4.13,0,*50
1511636535.63,47225,7.0,72802.8,-3.43,-4.17,-4.09,0,*5D
1511636536.85,47226,7.0,72804.3,-3.43,-4.17,-4.09,0,*5E
1511636538.07,47227,7.0,72806.3,-3.43,-4.17,-4.09,0,*5F
1511636539.29,47228,7.0,72806.8,-3.43,-4.21,-4.09,0,*55
1511636540.51,47229,7.0,72804.0,-3.43,-4.17,-4.09,0,*51
1511636541.7,47230,7.0,72802.8,-3.39,-4.17,-4.17,0,*5B
1511636542.9,47231,7.0,72802.3,-3.39,-4.13,-4.13,0,*5A
1511636544.1,47232,7.0,72804.0,-3.39,-4.13,-4.13,0,*59
1511636545.29,47233,7.0,72806.0,-3.39,-4.13,-4.05,0,*5F
1511636546.49,47234,7.0,72800.8,-3.39,-4.13,-4.05,0,*58
1511636547.68,47235,7.0,72800.5,-3.39,-4.13,-4.05,0,*59
1511636548.9,47236,7.0,72806.3,-3.43,-4.09,-4.09,0,*50
1511636550.12,47237,7.0,72808.5,-3.43,-4.17,-4.09,0,*5E
1511636551.31,47238,7.0,72808.5,-3.39,-4.13,-4.13,0,*53
1511636552.51,47239,7.0,72806.3,-3.39,-4.13,-4.13,0,*52
1511636553.73,47240,7.0,72800.8,-3.43,-4.09,-4.09,0,*51
1511636554.95,47241,7.0,72804.0,-3.43,-4.17,-4.05,0,*53
1511636556.17,47242,7.0,72800.3,-3.43,-4.21,-4.17,0,*56
1511636557.36,47243,7.0,72800.3,-3.39,-4.17,-4.17,0,*5F
1511636558.56,47244,7.0,72800.3,-3.39,-4.17,-4.13,0,*5C
1511636559.78,47245,7.0,72800.3,-3.37,-4.17,-4.17,0,*57
1511636561.01,47246,7.0,72790.5,-3.43,-4.21,-4.21,0,*57
1511636562.2,47247,7.0,72784.8,-3.39,-4.17,-4.17,0,*5B
1511636563.39,47248,7.0,72794.3,-3.39,-4.17,-4.17,0,*54
1511636564.59,47249,7.0,72800.5,-3.39,-4.13,-4.13,0,*55
1511636565.8,47250,7.0,72814.3,-3.43,-4.17,-4.17,0,*50
1511636567.02,47251,7.0,72812.0,-3.43,-4.09,-4.05,0,*5D
1511636568.27,47252,7.0,72810.5,-3.39,-4.01,-4.01,0,*5F
1511636569.5,47253,7.0,72812.5,-3.39,-4.01,-4.05,0,*5A
1511636570.7,47254,7.0,72818.5,-3.39,-4.05,-4.05,0,*59
1511636571.92,47255,7.0,72814.3,-3.39,-4.05,-4.01,0,*5C
1511636573.11,47256,7.0,72810.8,-3.39,-4.05,-4.05,0,*5B
1511636574.31,47257,7.0,72812.5,-3.39,-4.05,-4.05,0,*5A
1511636575.56,47258,7.0,72804.5,-3.39,-4.01,-4.01,0,*55
1511636576.78,47259,7.0,72804.8,-3.39,-4.01,-4.05,0,*50
1511636578.01,47260,7.0,72800.3,-3.39,-4.05,-4.01,0,*5A
1511636579.23,47261,7.0,72802.5,-3.37,-4.05,-4.13,0,*56
1511636580.43,47262,7.0,72806.5,-3.39,-4.05,-4.13,0,*5B
1511636581.63,47263,7.0,72810.5,-3.39,-4.05,-4.13,0,*5A
1511636582.82,47264,7.0,72816.0,-3.39,-4.05,-4.05,0,*5A
1511636584.05,47265,7.0,72820.3,-3.37,-4.05,-4.05,0,*55
1511636585.3,47266,7.0,72822.5,-3.37,-4.01,-4.05,0,*52
1511636586.56,47267,7.0,72826.0,-3.37,-4.01,-4.05,0,*53
1511636587.81,47268,7.0,72820.8,-3.37,-4.05,-4.01,0,*5C
1511636589.06,47269,7.0,72820.3,-3.39,-4.01,-4.01,0,*57
1511636590.29,47270,7.0,72822.0,-3.37,-4.05,-4.13,0,*56
1511636591.51,47271,7.0,72824.0,-3.37,-4.05,-4.05,0,*50
1511636592.71,47272,7.0,72820.8,-3.39,-4.05,-4.05,0,*5D
1511636593.9,47273,7.0,72824.5,-3.39,-4.13,-4.05,0,*5B
1511636595.13,47274,7.0,72824.5,-3.37,-4.17,-4.13,0,*51
1511636596.35,47275,7.0,72824.0,-3.37,-4.17,-4.17,0,*54
1511636597.57,47276,7.0,72824.0,-3.37,-4.17,-4.17,0,*57
1511636598.79,47277,7.0,72824.0,-3.37,-4.17,-4.17,0,*56
1511636600.01,47278,7.0,72820.0,-3.37,-4.21,-4.17,0,*5C
1511636601.24,47279,7.0,72826.8,-3.37,-4.29,-4.33,0,*53
1511636602.46,47280,7.0,72820.3,-3.37,-4.41,-4.33,0,*5B
1511636603.68,47281,7.0,72820.3,-3.37,-4.41,-4.33,0,*5A
1511636604.91,47282,7.0,72820.0,-3.37,-4.53,-4.41,0,*5F
1511636606.13,47283,7.0,72818.8,-3.37,-4.53,-4.53,0,*5D
1511636607.35,47284,7.0,72812.5,-3.37,-4.53,-4.45,0,*5D
1511636608.57,47285,7.0,72814.8,-3.37,-4.53,-4.41,0,*58
1511636609.77,47286,7.0,72812.8,-3.35,-4.53,-4.49,0,*51
1511636610.97,47287,7.0,72812.0,-3.39,-4.57,-4.53,0,*53
1511636612.16,47288,7.0,72812.3,-3.39,-4.57,-4.45,0,*5B
1511636613.37,47289,7.0,72814.3,-3.37,-4.45,-4.45,0,*57
1511636614.57,47290,7.0,72812.8,-3.39,-4.53,-4.53,0,*51
1511636615.79,47291,7.0,72812.8,-3.37,-4.53,-4.45,0,*59
1511636616.97,47292,7.0,72816.0,-3.39,-4.45,-4.45,0,*53
1511636618.16,47293,7.0,72820.5,-3.39,-4.45,-4.53,0,*55
1511636619.37,47294,7.0,72816.0,-3.37,-4.45,-4.45,0,*5B
1511636620.56,47295,7.0,72816.8,-3.39,-4.45,-4.41,0,*50
1511636621.78,47296,7.0,72818.0,-3.37,-4.45,-4.33,0,*58
1511636622.98,47297,7.0,72820.8,-3.39,-4.33,-4.33,0,*56
1511636624.18,47298,7.0,72826.3,-3.39,-4.33,-4.29,0,*52
1511636625.38,47299,7.0,72824.8,-3.39,-4.33,-4.29,0,*53
1511636626.58,47300,7.0,72832.0,-3.39,-4.29,-4.21,0,*51
1511636627.81,47301,7.0,72830.5,-3.37,-4.29,-4.21,0,*5E
1511636629.02,47302,7.0,72822.5,-3.39,-4.21,-4.21,0,*5B
1511636630.22,47303,7.0,72820.5,-3.39,-4.21,-4.29,0,*52
1511636631.43,47304,7.0,72822.0,-3.39,-4.29,-4.21,0,*55
1511636632.63,47305,7.0,72818.3,-3.39,-4.21,-4.29,0,*54
1511636633.83,47306,7.0,72818.0,-3.39,-4.29,-4.29,0,*5F
1511636635.06,47307,7.0,72818.5,-3.37,-4.29,-4.21,0,*58
1511636636.3,47308,7.0,72814.3,-3.37,-4.21,-4.21,0,*5F
1511636637.51,47309,7.0,72816.5,-3.39,-4.21,-4.21,0,*50
1511636638.71,47310,7.0,72818.0,-3.39,-4.21,-4.29,0,*50
1511636639.95,47311,7.0,72812.8,-3.37,-4.21,-4.21,0,*57
1511636641.16,47312,7.0,72816.0,-3.39,-4.21,-4.21,0,*5A
1511636642.36,47313,7.0,72816.8,-3.39,-4.21,-4.21,0,*5B
1511636643.6,47314,7.0,72816.8,-3.37,-4.21,-4.21,0,*52
1511636644.81,47315,7.0,72814.8,-3.39,-4.21,-4.21,0,*5D
1511636646.02,47316,7.0,72816.5,-3.39,-4.21,-4.21,0,*5E
1511636647.25,47317,7.0,72814.8,-3.37,-4.21,-4.21,0,*51
1511636648.46,47318,7.0,72820.3,-3.39,-4.21,-4.21,0,*50
1511636649.66,47319,7.0,72820.5,-3.39,-4.21,-4.17,0,*54
1511636650.86,47320,7.0,72822.3,-3.39,-4.21,-4.17,0,*5E
1511636652.05,47321,7.0,72820.8,-3.39,-4.17,-4.13,0,*5E
1511636653.28,47322,7.0,72822.3,-3.37,-4.17,-4.13,0,*53
1511636654.48,47323,7.0,72822.3,-3.39,-4.13,-4.13,0,*58
1511636655.7,47324,7.0,72824.3,-3.37,-4.13,-4.17,0,*55
1511636656.93,47325,7.0,72828.8,-3.37,-4.17,-4.13,0,*54
1511636658.15,47326,7.0,72828.0,-3.37,-4.21,-4.17,0,*56
1511636659.37,47327,7.0,72836.3,-3.37,-4.17,-4.17,0,*52
1511636660.56,47328,7.0,72828.3,-3.39,-4.17,-4.17,0,*53
1511636661.78,47329,7.0,72818.8,-3.37,-4.17,-4.17,0,*5C
1511636663.0,47330,7.0,72824.8,-3.37,-4.17,-4.17,0,*54
1511636664.22,47331,7.0,72826.5,-3.37,-4.17,-4.17,0,*55
1511636665.44,47332,7.0,72824.5,-3.37,-4.17,-4.17,0,*56
1511636666.68,47333,7.0,72828.5,-3.37,-4.21,-4.21,0,*57
1511636667.92,47334,7.0,72832.0,-3.37,-4.21,-4.21,0,*50
1511636669.16,47335,7.0,72836.3,-3.37,-4.21,-4.21,0,*51
1511636670.39,47336,7.0,72836.3,-3.37,-4.21,-4.29,0,*5A
1511636671.62,47337,7.0,72832.8,-3.37,-4.21,-4.29,0,*5B
1511636672.83,47338,7.0,72832.3,-3.39,-4.21,-4.29,0,*5A
1511636674.03,47339,7.0,72828.5,-3.39,-4.29,-4.29,0,*53
1511636675.26,47340,7.0,72830.5,-3.37,-4.21,-4.29,0,*5B
1511636676.49,47341,7.0,72830.0,-3.37,-4.21,-4.29,0,*5A
1511636677.73,47342,7.0,72836.8,-3.37,-4.21,-4.21,0,*51
1511636678.94,47343,7.0,72846.5,-3.39,-4.21,-4.21,0,*5E
1511636680.14,47344,7.0,72848.5,-3.39,-4.29,-4.29,0,*59
1511636681.36,47345,7.0,72848.0,-3.37,-4.29,-4.33,0,*5D
1511636682.56,47346,7.0,72846.3,-3.39,-4.29,-4.33,0,*50
1511636683.76,47347,7.0,72848.0,-3.39,-4.33,-4.33,0,*5A
1511636684.95,47348,7.0,72846.5,-3.39,-4.41,-4.29,0,*5B
1511636686.19,47349,7.0,72844.3,-3.37,-4.33,-4.21,0,*59
1511636687.39,47350,7.0,72854.0,-3.39,-4.33,-4.29,0,*57
1511636688.62,47351,7.0,72852.3,-3.37,-4.33,-4.29,0,*58
1511636689.84,47352,7.0,72852.8,-3.37,-4.41,-4.33,0,*55
1511636691.04,47353,7.0,72838.5,-3.39,-4.33,-4.33,0,*5F
1511636692.22,47354,7.0,72844.3,-3.39,-4.45,-4.41,0,*5C
1511636693.41,47355,7.0,72836.8,-3.39,-4.45,-4.33,0,*58
1511636694.6,47356,7.0,72820.8,-3.39,-4.45,-4.45,0,*5A
1511636695.78,47357,7.0,72824.0,-3.39,-4.53,-4.45,0,*5C
1511636697.01,47358,7.0,72828.8,-3.37,-4.53,-4.53,0,*5A
1511636698.23,47359,7.0,72828.5,-3.37,-4.53,-4.45,0,*5C
1511636699.44,47360,7.0,72828.3,-3.37,-4.53,-4.45,0,*56
1511636700.67,47361,7.0,72824.8,-3.37,-4.57,-4.53,0,*54
1511636701.87,47362,7.0,72822.0,-3.39,-4.57,-4.45,0,*5E
1511636703.07,47363,7.0,72818.5,-3.39,-4.57,-4.53,0,*58
1511636704.29,47364,7.0,72822.8,-3.37,-4.57,-4.45,0,*56
1511636705.51,47365,7.0,72824.8,-3.37,-4.57,-4.45,0,*57
1511636706.71,47366,7.0,72824.5,-3.39,-4.57,-4.45,0,*5A
1511636707.91,47367,7.0,72810.3,-3.39,-4.57,-4.57,0,*58
1511636709.11,47368,7.0,72808.8,-3.39,-4.57,-4.53,0,*53
1511636710.3,47369,7.0,72800.3,-3.39,-4.53,-4.45,0,*51
1511636711.5,47370,7.0,72792.8,-3.39,-4.57,-4.53,0,*5A
1511636712.72,47371,7.0,72792.0,-3.43,-4.57,-4.49,0,*5D
1511636713.94,47372,7.0,72794.0,-3.43,-4.49,-4.57,0,*5E
1511636715.16,47373,7.0,72802.5,-3.43,-4.57,-4.49,0,*5F
1511636716.39,47374,7.0,72808.3,-3.43,-4.61,-4.57,0,*52
1511636717.63,47375,7.0,72810.5,-3.43,-4.69,-4.57,0,*5B
1511636718.85,47376,7.0,72818.0,-3.43,-4.61,-4.57,0,*50
1511636720.07,47377,7.0,72828.5,-3.43,-4.57,-4.49,0,*5B
1511636721.28,47378,7.0,72820.3,-3.43,-4.49,-4.45,0,*57
1511636722.51,47379,7.0,72808.8,-3.43,-4.57,-4.37,0,*5C
1511636723.72,47380,7.0,72796.3,-3.43,-4.45,-4.45,0,*5C
1511636724.93,47381,7.0,72788.3,-3.43,-4.45,-4.33,0,*5C
1511636726.14,47382,7.0,72782.0,-3.43,-4.37,-4.33,0,*5A
1511636727.36,47383,7.0,72774.0,-3.43,-4.45,-4.37,0,*5A
1511636728.57,47384,7.0,72776.8,-3.43,-4.45,-4.37,0,*5D
1511636729.79,47385,7.0,72776.5,-3.43,-4.37,-4.33,0,*5D
1511636731.0,47386,7.0,72774.8,-3.43,-4.37,-4.33,0,*5E
1511636732.19,47387,7.0,72774.0,-3.45,-4.37,-4.37,0,*5D
1511636733.42,47388,7.0,72770.3,-3.43,-4.33,-4.25,0,*53
1511636734.64,47389,7.0,72766.8,-3.43,-4.33,-4.33,0,*55
1511636735.87,47390,7.0,72770.3,-3.43,-4.25,-4.25,0,*5D
1511636737.09,47391,7.0,72770.5,-3.43,-4.33,-4.33,0,*5C
1511636738.31,47392,7.0,72774.5,-3.43,-4.37,-4.25,0,*5C
1511636739.53,47393,7.0,72778.8,-3.43,-4.33,-4.33,0,*5E
1511636740.73,47394,7.0,72782.3,-3.45,-4.29,-4.37,0,*50
1511636741.95,47395,7.0,72780.0,-3.43,-4.25,-4.33,0,*5F
1511636743.17,47396,7.0,72778.5,-3.43,-4.33,-4.33,0,*5B
1511636744.4,47397,7.0,72776.0,-3.43,-4.33,-4.25,0,*5D
1511636745.62,47398,7.0,72782.3,-3.43,-4.25,-4.33,0,*52
1511636746.84,47399,7.0,72780.5,-3.43,-4.33,-4.33,0,*54
1511636748.07,47400,7.0,72784.0,-3.43,-4.25,-4.25,0,*53
1511636749.29,47401,7.0,72786.0,-3.43,-4.25,-4.25,0,*52
1511636750.52,47402,7.0,72780.8,-3.43,-4.25,-4.25,0,*51
1511636751.74,47403,7.0,72788.5,-3.43,-4.25,-4.25,0,*50
1511636752.97,47404,7.0,72790.0,-3.43,-4.33,-4.25,0,*50
1511636754.17,47405,7.0,72804.0,-3.45,-4.29,-4.37,0,*5F
1511636755.39,47406,7.0,72790.3,-3.43,-4.33,-4.25,0,*52
1511636756.62,47407,7.0,72792.8,-3.43,-4.25,-4.25,0,*54
1511636757.84,47408,7.0,72796.5,-3.43,-4.33,-4.25,0,*5C
1511636759.07,47409,7.0,72796.0,-3.43,-4.25,-4.21,0,*5E
1511636760.27,47410,7.0,72804.0,-3.45,-4.29,-4.25,0,*58
1511636761.5,47411,7.0,72818.8,-3.43,-4.25,-4.21,0,*57
1511636762.73,47412,7.0,72818.3,-3.43,-4.25,-4.25,0,*50
1511636763.95,47413,7.0,72816.5,-3.43,-4.25,-4.25,0,*51
1511636765.18,47414,7.0,72816.0,-3.43,-4.25,-4.25,0,*56
1511636766.4,47415,7.0,72824.8,-3.43,-4.25,-4.25,0,*57
1511636767.63,47416,7.0,72828.3,-3.43,-4.25,-4.25,0,*54
1511636768.86,47417,7.0,72830.0,-3.43,-4.25,-4.25,0,*55
1511636770.08,47418,7.0,72830.8,-3.43,-4.25,-4.33,0,*5D
1511636771.3,47419,7.0,72830.0,-3.43,-4.33,-4.25,0,*5C
1511636772.5,47420,7.0,72824.5,-3.39,-4.29,-4.29,0,*5C
1511636773.73,47421,7.0,72804.5,-3.43,-4.33,-4.25,0,*57
1511636774.93,47422,7.0,72814.0,-3.39,-4.33,-4.29,0,*55
1511636776.13,47423,7.0,72808.5,-3.39,-4.33,-4.29,0,*54
1511636777.32,47424,7.0,72816.5,-3.39,-4.41,-4.29,0,*56
1511636778.53,47425,7.0,72804.5,-3.39,-4.29,-4.21,0,*51
1511636779.74,47426,7.0,72782.5,-3.39,-4.21,-4.21,0,*5A
1511636780.93,47427,7.0,72780.8,-3.39,-4.21,-4.17,0,*5E
1511636782.13,47428,7.0,72778.5,-3.39,-4.21,-4.17,0,*51
1511636783.32,47429,7.0,72784.3,-3.39,-4.29,-4.17,0,*58
1511636784.52,47430,7.0,72784.8,-3.39,-4.29,-4.13,0,*54
1511636785.72,47431,7.0,72782.3,-3.39,-4.21,-4.17,0,*59
1511636786.95,47432,7.0,72780.5,-3.43,-4.25,-4.21,0,*56
1511636788.18,47433,7.0,72784.0,-3.43,-4.25,-4.21,0,*57
1511636789.41,47434,7.0,72780.0,-3.43,-4.25,-4.21,0,*50
1511636790.6,47435,7.0,72788.5,-3.39,-4.21,-4.17,0,*5D
1511636791.81,47436,7.0,72794.8,-3.39,-4.29,-4.21,0,*53
1511636793.0,47437,7.0,72792.8,-3.39,-4.21,-4.17,0,*5F
1511636794.23,47438,7.0,72796.0,-3.43,-4.33,-4.25,0,*5F
1511636795.45,47439,7.0,72794.3,-3.43,-4.25,-4.25,0,*59
1511636796.66,47440,7.0,72798.0,-3.39,-4.33,-4.21,0,*59
1511636797.89,47441,7.0,72792.0,-3.37,-4.29,-4.21,0,*5D
1511636799.09,47442,7.0,72790.0,-3.39,-4.29,-4.29,0,*58
1511636800.32,47443,7.0,72790.8,-3.37,-4.29,-4.21,0,*5F
1511636801.52,47444,7.0,72792.3,-3.39,-4.21,-4.17,0,*5B
1511636802.72,47445,7.0,72782.5,-3.39,-4.21,-4.29,0,*57
1511636803.93,47446,7.0,72786.8,-3.39,-4.21,-4.29,0,*54
1511636805.12,47447,7.0,72794.8,-3.39,-4.29,-4.29,0,*5D
1511636806.32,47448,7.0,72794.5,-3.39,-4.33,-4.29,0,*59
1511636807.52,47449,7.0,72796.3,-3.39,-4.41,-4.29,0,*5D
1511636808.72,47450,7.0,72790.3,-3.39,-4.41,-4.29,0,*55
1511636809.93,47451,7.0,72794.8,-3.43,-4.45,-4.33,0,*56
1511636811.14,47452,7.0,72796.3,-3.43,-4.45,-4.33,0,*55
1511636812.36,47453,7.0,72792.3,-3.43,-4.45,-4.37,0,*50
1511636813.55,47454,7.0,72792.8,-3.39,-4.41,-4.33,0,*5A
1511636814.77,47455,7.0,72802.5,-3.43,-4.37,-4.37,0,*53
1511636815.98,47456,7.0,72804.8,-3.43,-4.45,-4.45,0,*50
1511636817.19,47457,7.0,72806.0,-3.43,-4.37,-4.37,0,*51
1511636818.41,47458,7.0,72810.3,-3.43,-4.45,-4.25,0,*58
1511636819.62,47459,7.0,72804.8,-3.43,-4.37,-4.33,0,*5B
1511636820.82,47460,7.0,72808.5,-3.39,-4.33,-4.29,0,*53
1511636822.02,47461,7.0,72808.3,-3.39,-4.41,-4.29,0,*57
1511636823.22,47462,7.0,72808.8,-3.39,-4.33,-4.29,0,*51
1511636824.41,47463,7.0,72808.5,-3.39,-4.41,-4.33,0,*5E
1511636825.61,47464,7.0,72816.3,-3.39,-4.41,-4.33,0,*59
1511636826.8,47465,7.0,72814.3,-3.39,-4.41,-4.29,0,*53
1511636828.0,47466,7.0,72814.3,-3.39,-4.33,-4.29,0,*55
1511636829.23,47467,7.0,72816.5,-3.37,-4.29,-4.21,0,*59
1511636830.44,47468,7.0,72816.3,-3.39,-4.33,-4.21,0,*53
1511636831.66,47469,7.0,72814.5,-3.43,-4.33,-4.25,0,*5B
1511636832.86,47470,7.0,72804.5,-3.39,-4.29,-4.29,0,*59
1511636834.07,47471,7.0,72808.5,-3.39,-4.21,-4.21,0,*58
1511636835.28,47472,7.0,72814.5,-3.39,-4.21,-4.21,0,*5B
1511636836.49,47473,7.0,72812.8,-3.39,-4.21,-4.21,0,*5A
1511636837.69,47474,7.0,72818.5,-3.39,-4.21,-4.21,0,*5D
1511636838.9,47475,7.0,72818.0,-3.39,-4.29,-4.21,0,*54
1511636840.1,47476,7.0,72820.5,-3.39,-4.21,-4.21,0,*5F
1511636841.31,47477,7.0,72818.5,-3.39,-4.29,-4.21,0,*56
1511636842.51,47478,7.0,72810.8,-3.39,-4.21,-4.21,0,*51
1511636843.72,47479,7.0,72814.5,-3.39,-4.29,-4.21,0,*58
1511636844.92,47480,7.0,72816.5,-3.39,-4.21,-4.21,0,*56
1511636846.12,47481,7.0,72820.8,-3.39,-4.21,-4.17,0,*52
1511636847.32,47482,7.0,72816.8,-3.39,-4.21,-4.17,0,*51
1511636848.52,47483,7.0,72812.8,-3.39,-4.21,-4.17,0,*50
1511636849.72,47484,7.0,72806.3,-3.39,-4.21,-4.17,0,*57
1511636850.91,47485,7.0,72810.5,-3.39,-4.21,-4.17,0,*56
1511636852.12,47486,7.0,72814.0,-3.39,-4.21,-4.13,0,*51
1511636853.32,47487,7.0,72816.8,-3.39,-4.21,-4.17,0,*54
1511636854.51,47488,7.0,72814.0,-3.39,-4.21,-4.17,0,*5B
1511636855.72,47489,7.0,72808.3,-3.39,-4.21,-4.13,0,*5E
1511636856.92,47490,7.0,72804.5,-3.39,-4.21,-4.17,0,*52
1511636858.12,47491,7.0,72808.8,-3.39,-4.21,-4.13,0,*57
1511636859.31,47492,7.0,72804.3,-3.39,-4.17,-4.17,0,*55
1511636860.51,47493,7.0,72808.3,-3.39,-4.17,-4.13,0,*50
1511636861.7,47494,7.0,72818.8,-3.39,-4.17,-4.13,0,*57
1511636862.89,47495,7.0,72818.0,-3.39,-4.17,-4.17,0,*52
1511636864.09,47496,7.0,72812.5,-3.39,-4.13,-4.13,0,*51
1511636865.28,47497,7.0,72806.3,-3.39,-4.13,-4.17,0,*54
1511636866.48,47498,7.0,72806.3,-3.39,-4.17,-4.13,0,*5B
1511636867.67,47499,7.0,72818.0,-3.39,-4.13,-4.17,0,*5A
1511636868.89,47500,7.0,72816.5,-3.37,-4.13,-4.17,0,*55
1511636870.08,47501,7.0,72818.8,-3.39,-4.17,-4.05,0,*5D
1511636871.28,47502,7.0,72830.8,-3.39,-4.05,-4.13,0,*5A
1511636872.48,47503,7.0,72822.3,-3.39,-4.13,-4.05,0,*5B
1511636873.7,47504,7.0,72804.5,-3.37,-4.17,-4.17,0,*55
1511636874.9,47505,7.0,72802.3,-3.39,-4.17,-4.21,0,*5F
1511636876.1,47506,7.0,72822.3,-3.39,-4.17,-4.21,0,*5C
1511636877.29,47507,7.0,72834.3,-3.39,-4.17,-4.13,0,*5C
1511636878.48,47508,7.0,72828.0,-3.39,-4.17,-4.17,0,*57
1511636879.68,47509,7.0,72832.5,-3.39,-4.17,-4.17,0,*56
1511636880.87,47510,7.0,72842.8,-3.39,-4.13,-4.17,0,*5A
1511636882.06,47511,7.0,72842.5,-3.39,-4.17,-4.17,0,*5F
1511636883.25,47512,7.0,72832.5,-3.39,-4.17,-4.17,0,*5C
1511636884.44,47513,7.0,72826.8,-3.39,-4.13,-4.17,0,*59
1511636885.64,47514,7.0,72830.0,-3.39,-4.21,-4.29,0,*52
1511636886.88,47515,7.0,72830.5,-3.37,-4.21,-4.21,0,*55
1511636888.08,47516,7.0,72830.3,-3.39,-4.17,-4.21,0,*5D
1511636889.31,47517,7.0,72832.5,-3.37,-4.17,-4.21,0,*52
1511636890.5,47518,7.0,72836.5,-3.39,-4.17,-4.17,0,*56
1511636891.72,47519,7.0,72832.5,-3.37,-4.17,-4.17,0,*59
1511636892.91,47520,7.0,72832.5,-3.39,-4.13,-4.17,0,*59
1511636894.11,47521,7.0,72834.3,-3.39,-4.13,-4.13,0,*5C
1511636895.31,47522,7.0,72838.8,-3.39,-4.13,-4.13,0,*5F
1511636896.53,47523,7.0,72838.3,-3.37,-4.17,-4.17,0,*50
1511636897.75,47524,7.0,72838.0,-3.37,-4.13,-4.17,0,*53
1511636898.94,47525,7.0,72840.8,-3.39,-4.17,-4.13,0,*5C
1511636900.14,47526,7.0,72840.5,-3.39,-4.13,-4.17,0,*5F
1511636901.36,47527,7.0,72838.0,-3.37,-4.13,-4.17,0,*50
1511636902.58,47528,7.0,72832.0,-3.37,-4.17,-4.17,0,*5B
1511636903.81,47529,7.0,72822.8,-3.37,-4.17,-4.21,0,*5F
1511636905.01,47530,7.0,72804.5,-3.39,-4.17,-4.21,0,*59
1511636906.21,47531,7.0,72804.8,-3.39,-4.17,-4.21,0,*58
1511636907.42,47532,7.0,72798.8,-3.39,-4.21,-4.21,0,*5E
1511636908.62,47533,7.0,72800.5,-3.39,-4.29,-4.21,0,*57
1511636909.82,47534,7.0,72806.3,-3.39,-4.21,-4.29,0,*50
1511636911.05,47535,7.0,72808.0,-3.37,-4.29,-4.21,0,*5F
1511636912.25,47536,7.0,72816.5,-3.39,-4.29,-4.29,0,*5A
1511636913.48,47537,7.0,72826.0,-3.37,-4.29,-4.21,0,*5D
1511636914.71,47538,7.0,72830.8,-3.37,-4.29,-4.21,0,*52
1511636915.92,47539,7.0,72826.0,-3.39,-4.21,-4.29,0,*5D
1511636917.13,47540,7.0,72824.5,-3.39,-4.21,-4.21,0,*5B
1511636918.33,47541,7.0,72826.8,-3.39,-4.21,-4.21,0,*5A
1511636919.54,47542,7.0,72820.5,-3.39,-4.21,-4.21,0,*59
1511636920.77,47543,7.0,72824.3,-3.37,-4.29,-4.29,0,*56